Location: Observatory Park - Geauga Park District
(41.5832°N, 81.0716°W)
Time: 18:17:20
(UTC-04:00)

Tiangong - Pass Details

Date: 26 September 2021
Orbit: 382 x 385 km, 41.5° (Epoch: 19 October)

Event Time Altitude Azimuth Distance (km) Brightness Sun altitude
Exits shadow 06:08:45 13° 206° (SSW) 1,206 3.2 -13.4°
Maximum altitude 06:10:52 25° 154° (SSE) 799 2.8 -13.0°
Drops below altitude 10° 06:13:32 10° 96° (E) 1,391 5.2 -12.5°
Sets 06:15:48 0° 83° (E) 2,245 7.1 -12.1°
